YAOGAN-43 01B

Last updated on Mon Sep 16 2024 00:02:03 GMT+0000 (Coordinated Universal Time)

1 60459U 24148B 24259.37842644 .00022752 00000+0 97176-3 0 9993 2 60459 34.9959 226.2346 0005834 193.1855 166.8708 15.21973540 4537
UTC large
Height (km)
Speed (km/s)
/
Latitude / Longitude
Inclination (degrees)
Orbital Period (minutes)
Azimuth
Elevation
Range (km)
Doppler Factor

Next 0 passes for location: London (51.5072 / 0.1276)

Sorry there are no passes over London.